YOUTHSAT

Satellite information

Favourite Embed

Satellite Type and Status

PAYLOADIN ORBIT

Key statistics

Satellite YOUTHSAT at a glance.

Uptime

5190

Days in orbit

Revolutions

≈ 14.3

Per day

Orbit

SSO

Sun Synchronous Orbit

Inclination

98.3

Latest

Satellite identification and parameters

Extended collection of information and parameters for YOUTHSAT.

Object identification

Identified? True

Debris? False

Object name: YOUTHSAT

International designator: 2011-015B

Object number (NORAD): 37388

Object ID (CCSDS): 37388

Country: INDIA (IND)

Current information (Y/N): Y

RCS size: MEDIUM

Orbital parameters

Period: 101.024 minutes

Inclination: 98.3255 deg

SMA: 7185.271 km

Apoapsis: 816.697 km

Periapsis: 797.576 km

RAAN: 171.2127 deg

Eccentricy: 0.0013306

Argument of periapsis: 284.4336 deg

Mean anomaly: 187.5931 deg

Mean motion: 14.2540407 rev/day

Mean motion (dot): 0.00000152 rev/day2

B* drag term: 0.000081631 1/REarth

Two-line elements (TLE)

Creation date: July 4, 2025, 6:39 p.m.

Reference frame: TEME

Reference center: EARTH

Epoch: July 4, 2025, 2:03 p.m. UTC

TLE line 0: 0 YOUTHSAT

TLE line 1: 1 37388U 11015B 25185.58596093 .00000152 00000-0 81631-4 0 9994

TLE line 2: 2 37388 98.3255 171.2127 0013306 284.4336 187.5931 14.25404070738118

Live tracking on map

Real-time ground track for satellite YOUTHSAT.

In-orbit conjunctions

There are no conjunctions computed for YOUTHSAT, at the moment. Check back to stay up to date, as we update our databases every day.

Go to all conjunctions

Associated space launch

YOUTHSAT was lifted into orbit during the mission ‘PSLV | Resourcesat-2’, on board a PSLV space rocket.

The launch took place on April 20, 2011, 4:42 a.m. from Satish Dhawan Space Centre First Launch Pad.

For more information about the launch, click the button.

Launch to space PSLV | Resourcesat-2
PSLV | Resourcesat-2

Agency: N/A

Status: Launch Successful

Launch date: April 20, 2011, 4:42 a.m. UTC

Rocket: PSLV

Launch pad: Satish Dhawan Space Centre First Launch Pad

Location: Satish Dhawan Space Centre, India

...

Latest news about this satellite

There are no fresh news available about this satellite. Check back as we update our databases every day.


Newsletter sign-up

Weekly statistics, charts and insights to help you stay on top of the space industry.